Location: Newark
(34.6283°N, 36.0776°E)
Time: 14:49:11
(UTC+00:00)

S-56A Canister/Altair - Pass Details

Date: 21 October 2019
Orbit: 634 x 2498 km, 38.9° (Epoch: 13 November)

Event Time Altitude Azimuth Distance (km) Brightness Sun altitude
Rises 07:50:55 0° 281° (W) 5,268 11.5 40.0°
Reaches altitude 10° 07:55:16 10° 267° (W) 4,547 11.4 40.4°
Maximum altitude 08:04:02 22° 224° (SW) 4,064 11.7 41.3°
Drops below altitude 10° 08:13:57 10° 182° (S) 5,147 12.7 42.1°
Sets 08:19:28 0° 169° (SSE) 6,140 12.9 42.5°
